Regional Weather Roundup
Issued by NWS

Home | Current Version | Previous Version | Text Only | Print | Product List | Glossary Off
Versions: 1 2 3 4 5 6 7 8 9 10 11 12 13 14 15 16 17 18 19 20 21 22 23 24 25 26 27

000
ASUS45 KCYS 171910
RWRWY

WYOMING REGIONAL WEATHER ROUNDUP
NATIONAL WEATHER SERVICE CHEYENNE WY
1200 PM MST SUN DEC 17 2017

NOTE:  "FAIR" INDICATES FEW OR NO CLOUDS BELOW 12,000 FEET
WITH NO SIGNIFICANT WEATHER AND/OR OBSTRUCTIONS TO VISIBILITY.

WYZ001-172000-
YELLOWSTONE NATIONAL PARK

CITY           SKY/WX    TMP DP  RH WIND       PRES   REMARKS
LK YELLOWSTONE   N/A     13  10  88 VRB3      30.06R
W YELLOWSTONE  NOT AVBL

$$
WYZ002>013-054>058-071-098>099-172000-
NORTHERN WYOMING

CITY           SKY/WX    TMP DP  RH WIND       PRES   REMARKS
JACKSON        FAIR      29  16  58 CALM      30.08F
CODY           FAIR      24  14  65 NE8       29.86F WCI  15
GREYBULL       FAIR      27  25  92 S6        29.92F WCI  20
WORLAND        PTSUNNY   17  17 100 CALM      29.93F FOG
SHERIDAN       FOG       20  17  88 NW3       29.85F VSB 1/4
BUFFALO        FAIR      24  18  77 W3        29.81F
GILLETTE       FAIR      29  21  72 S6        29.83F WCI  23
HULETT         FAIR      32  27  80 SW20      29.85F WCI  20
NEWCASTLE      FAIR      32  27  80 SE8       29.90F WCI  25

$$
WYZ014>020-022>026-101>103-172000-
CENTRAL WYOMING

CITY           SKY/WX    TMP DP  RH WIND       PRES   REMARKS
BIG PINEY      CLOUDY    27  10  49 N10       30.02F WCI  17
PINEDALE       FAIR      23  12  63 NW23      30.02F WCI   7
DUBOIS         FAIR      27  10  50 W21G31    29.93S WCI  13
LANDER         FAIR      26  19  74 CALM      29.89F
RIVERTON       FAIR      25  18  74 W10       29.90F WCI  15
CASPER         FAIR      30  20  66 SW22      29.88F WCI  17
DOUGLAS        FAIR      36  26  67 S6        29.87F WCI  31

$$
WYZ021-027>030-104>119-172000-
SOUTHERN WYOMING

CITY           SKY/WX    TMP DP  RH WIND       PRES   REMARKS
EVANSTON       FAIR      25  18  74 SW12      30.09F WCI  14
FORT BRIDGER   FAIR      29  18  62 W17G23    30.10F WCI  17
ROCK SPRINGS   FAIR      25  14  63 W20       30.03F WCI  11
DIXON          CLOUDY    30  20  65 W8        30.07F WCI  23
RAWLINS        FAIR      29  15  56 W20G29    29.97F WCI  16
SARATOGA       FAIR      30  21  69 SW16G23   29.99F WCI  19
LARAMIE        FAIR      32  19  58 W20       29.90F WCI  20
CHEYENNE       FAIR      30  28  92 SW16      29.90F WCI  19
TORRINGTON     PTSUNNY   41  27  57 SW10      29.90F
PINE BLUFFS    MOCLDY    34  28  80 MISG      29.94F

$$




USA.gov is the U.S. government's official web portal to all federal, state and local government web resources and services.